Weather History for New Philadelphia, OH

Change the Weather History Date:

Thursday, March 3, 2011

  Actual Average Record
Temperature  
Mean Temperature 30 °F 35 °F  
Max Temperature 41 °F 46 °F 74 °F (1991)
Min Temperature 18 °F 25 °F 1 °F (1980)
Degree Days  
Heating Degree Days 36 30  
Month to date heating degree days 90  
Since 1 July heating degree days 4297  
Cooling Degree Days 0 0  
Month to date cooling degree days 0  
Year to date cooling degree days 0  
Moisture  
Dew Point 7 °F    
Average Humidity 44    
Maximum Humidity 71    
Minimum Humidity 23    
Precipitation  
Precipitation 0.00 in 0.08 in 0.79 in (1951)
Month to date precipitation 0.25  
Year to date precipitation 5.21  
Sea Level Pressure  
Sea Level Pressure 30.52 in    
Wind  
Wind Speed 6 mph (ESE)    
Max Wind Speed 13 mph    
Max Gust Speed 18 mph    
Visibility 10 miles    
Events      
T = Trace of Precipitation, MM = Missing Value Source: NWS Daily Summary

Daily Weather History Graph

Daily Weather History Graph

Search for Another Location

Airport:

Trip Planner

Search our weather history database for the weather conditions in past years. The results will help you decide how hot, cold, wet, or windy it might be!

Date:

Astronomy

Mar. 03, 2011 Rise Set
Actual Time 6:56 AM EST 6:19 PM EST
Civil Twilight 6:29 AM EST 6:46 PM EST
Nautical Twilight 5:57 AM EST 7:18 PM EST
Astronomical Twilight 5:26 AM EST 7:49 PM EST
Moon 6:03 AM EST (3/3) 5:30 PM EST (3/3)
Length of Visible Light 12h 16m
Length of Day
11h 22m
Waning Crescent, 1% of the Moon is Illuminated
Mar 3
Waning Crescent
Mar 4
New
Mar 12
First Quarter
Mar 19
Full
Mar 26
Last Quarter

Hourly Weather History & Observations

Time (EST) Temp. Windchill Dew Point Humidity Pressure Visibility Wind Dir Wind Speed Gust Speed Precip Events Conditions
12:53 AM 21.9 °F 15.7 °F 12.9 °F 68% 30.55 in 10.0 mi East 4.6 mph - N/A   Clear
1:53 AM 19.9 °F 14.9 °F 12.0 °F 71% 30.56 in 10.0 mi East 3.5 mph - N/A   Clear
2:53 AM 19.9 °F 12.1 °F 10.0 °F 65% 30.56 in 10.0 mi East 5.8 mph - N/A   Clear
3:53 AM 19.0 °F - 9.0 °F 65% 30.58 in 10.0 mi Calm Calm - N/A   Clear
4:53 AM 18.0 °F 12.7 °F 9.0 °F 68% 30.61 in 10.0 mi East 3.5 mph - N/A   Clear
5:53 AM 18.0 °F 12.7 °F 8.1 °F 65% 30.64 in 10.0 mi ESE 3.5 mph - N/A   Clear
6:53 AM 18.0 °F 11.1 °F 8.1 °F 65% 30.65 in 10.0 mi ESE 4.6 mph - N/A   Clear
7:53 AM 19.0 °F 11.1 °F 9.0 °F 65% 30.66 in 10.0 mi ESE 5.8 mph - N/A   Clear
8:53 AM 23.0 °F 11.1 °F 7.0 °F 50% 30.65 in 10.0 mi SE 12.7 mph 18.4 mph N/A   Clear
9:53 AM 26.1 °F 16.2 °F 6.1 °F 43% 30.66 in 10.0 mi ESE 10.4 mph - N/A   Clear
10:53 AM 28.9 °F 19.8 °F 5.0 °F 36% 30.64 in 10.0 mi ESE 10.4 mph - N/A   Clear
11:53 AM 30.9 °F 23.5 °F 6.1 °F 35% 30.60 in 10.0 mi SE 8.1 mph - N/A   Clear
12:53 PM 35.1 °F 32.2 °F 6.1 °F 30% 30.56 in 10.0 mi Variable 3.5 mph - N/A   Clear
1:53 PM 37.9 °F 30.9 °F 5.0 °F 25% 30.51 in 10.0 mi SE 10.4 mph - N/A   Clear
2:53 PM 41.0 °F 35.2 °F 6.1 °F 24% 30.48 in 10.0 mi SE 9.2 mph - N/A   Clear
4:53 PM 39.9 °F 35.8 °F 5.0 °F 23% 30.44 in 10.0 mi ESE 5.8 mph - N/A   Clear
5:53 PM 37.9 °F 32.1 °F 5.0 °F 25% 30.43 in 10.0 mi SE 8.1 mph - N/A   Clear
6:53 PM 36.0 °F 30.3 °F 6.1 °F 29% 30.40 in 10.0 mi SE 6.9 mph - N/A   Clear
7:53 PM 36.0 °F 29.6 °F 6.1 °F 29% 30.38 in 10.0 mi SE 8.1 mph - N/A   Clear
8:53 PM 34.0 °F 29.8 °F 6.1 °F 31% 30.36 in 10.0 mi SE 4.6 mph - N/A   Clear
9:53 PM 34.0 °F 29.8 °F 6.1 °F 31% 30.35 in 10.0 mi SE 4.6 mph - N/A   Clear
10:53 PM 33.1 °F 26.1 °F 8.1 °F 35% 30.33 in 10.0 mi SSE 8.1 mph - N/A   Clear
11:53 PM 34.0 °F 28.8 °F 9.0 °F 35% 30.32 in 10.0 mi SSE 5.8 mph - N/A   Clear